EW5833 Weather Reports


Display with metric or nautical units.
time (UTC)temp
F
wind
direction
speed
MPH
gust
MPH
rain 1hr
in
rain 24hr
in
rain mn
in
humidity
%
barometer
mb
20260510035012 51 345 1.0 4.0 0.00 0.33 0.33 58 1008.5
20260510034042 52 349 1.0 5.0 0.00 0.33 0.33 57 1008.4
20260510032831 52 7 2.0 8.0 0.00 0.33 0.33 56 1008.3
20260510031831 53 311 2.0 6.0 0.00 0.33 0.33 57 1008.3
20260510030829 54 352 2.0 9.0 0.00 0.33 0.33 56 1008.0
20260510025829 55 354 2.0 8.0 0.00 0.33 0.33 56 1007.9
20260510024829 56 345 3.0 7.0 0.00 0.33 0.33 54 1007.8
20260510024307 56 0 4.0 13.0 0.00 0.33 0.33 50 1007.6
20260510024041 56 0 4.0 13.0 0.00 0.33 0.33 50 1007.6
20260510023518 57 296 4.0 9.0 0.00 0.33 0.33 49 1007.3
20260510023404 57 296 4.0 9.0 0.00 0.33 0.33 49 1007.3
20260510021829 57 315 4.0 11.0 0.00 0.33 0.33 48 1007.1
20260510020830 57 336 3.0 8.0 0.00 0.33 0.33 48 1006.9
20260510015829 58 265 4.0 9.0 0.00 0.33 0.33 47 1006.4
20260510014830 58 287 3.0 9.0 0.00 0.33 0.33 46 1006.3
20260510013828 59 318 6.0 11.0 0.00 0.33 0.33 45 1006.0
20260510012829 59 28 4.0 10.0 0.00 0.33 0.33 45 1005.5
20260510012309 59 338 3.0 10.0 0.00 0.33 0.33 47 1005.1
20260510012041 59 338 3.0 10.0 0.00 0.33 0.33 47 1005.1
20260510010830 59 310 1.0 9.0 0.00 0.33 0.33 49 1004.9
20260510005828 59 304 0.0 3.0 0.00 0.33 0.33 49 1004.8
20260510005312 60 258 0.0 4.0 0.00 0.32 0.32 47 1004.6
20260510004830 60 258 0.0 4.0 0.00 0.32 0.32 47 1004.6
20260510003831 60 226 0.0 4.0 0.00 0.32 0.32 48 1004.4
20260510003751 61 334 1.0 4.0 0.00 0.32 0.32 47 1004.3
20260510002830 61 334 1.0 4.0 0.00 0.32 0.32 47 1004.3
20260510001829 60 0 0.0 4.0 0.00 0.32 0.32 47 1004.1
20260510000829 61 0 1.0 6.0 0.00 0.32 0.32 47 1004.0
20260510000313 61 297 2.0 6.0 0.00 0.32 0.32 46 1003.9
20260509235831 61 297 2.0 6.0 0.00 0.32 0.32 46 1003.9
20260509235312 62 0 3.0 8.0 0.00 0.32 0.32 46 1003.7
20260509235042 62 0 3.0 8.0 0.00 0.32 0.32 46 1003.7
20260509233836 62 267 2.0 11.0 0.00 0.32 0.32 44 1003.7
20260509233240 63 296 3.0 10.0 0.00 0.32 0.32 43 1003.3
20260509233022 63 304 4.0 11.0 0.00 0.32 0.32 44 1003.3
20260509231830 63 296 3.0 10.0 0.00 0.32 0.32 43 1003.3
20260509231311 64 200 4.0 11.0 0.00 0.32 0.32 42 1003.2
20260509231042 64 200 4.0 11.0 0.00 0.32 0.32 42 1003.2
20260509230318 64 292 4.0 12.0 0.00 0.32 0.32 43 1003.1
20260509230040 64 292 4.0 12.0 0.00 0.32 0.32 43 1003.1
20260509225316 65 292 3.0 9.0 0.00 0.32 0.32 42 1002.8
20260509225040 65 292 3.0 9.0 0.00 0.32 0.32 42 1002.8
20260509224308 66 245 5.0 13.0 0.00 0.32 0.32 40 1002.6
20260509224042 66 245 5.0 13.0 0.00 0.32 0.32 40 1002.6
20260509222830 67 0 3.0 9.0 0.00 0.32 0.32 39 1002.4
20260509221829 67 333 4.0 15.0 0.00 0.32 0.32 39 1002.2
20260509220829 67 317 4.0 10.0 0.00 0.32 0.32 40 1002.0
20260509215830 66 127 4.0 13.0 0.00 0.32 0.32 42 1002.0
20260509215315 66 302 3.0 10.0 0.00 0.32 0.32 41 1001.9
20260509215041 66 302 3.0 10.0 0.00 0.32 0.32 41 1001.9
20260509214749 66 187 4.0 9.0 0.00 0.32 0.32 41 1001.8
20260509213828 66 187 4.0 9.0 0.00 0.32 0.32 41 1001.8
20260509212829 66 299 4.0 15.0 0.00 0.32 0.32 41 1001.8
20260509211829 67 291 4.0 15.0 0.00 0.32 0.32 42 1001.7
20260509210829 67 285 3.0 11.0 0.00 0.32 0.32 41 1001.6
20260509210316 66 230 4.0 11.0 0.00 0.32 0.32 46 1001.7
20260509205829 66 230 4.0 11.0 0.00 0.32 0.32 46 1001.7
20260509204829 66 250 4.0 9.0 0.00 0.32 0.32 44 1001.7
20260509203829 66 314 3.0 10.0 0.00 0.32 0.32 46 1001.7
20260509203304 65 306 3.0 10.0 0.00 0.32 0.32 45 1001.5
20260509202828 65 306 3.0 10.0 0.00 0.32 0.32 45 1001.5
20260509201829 65 259 4.0 13.0 0.00 0.32 0.32 45 1001.9
20260509200830 65 204 4.0 19.0 0.00 0.32 0.32 49 1002.4
20260509200317 64 208 5.0 13.0 0.00 0.32 0.32 49 1002.6
20260509195826 64 208 5.0 13.0 0.00 0.32 0.32 49 1002.6
20260509194819 64 290 4.0 13.0 0.00 0.32 0.32 54 1002.3
20260509193820 65 315 2.0 6.0 0.00 0.32 0.32 63 1002.4
20260509192821 63 0 2.0 9.0 0.11 0.32 0.32 70 1002.4
20260509191818 61 274 2.0 6.0 0.31 0.32 0.32 82 1002.4
20260509190818 59 170 1.0 4.0 0.31 0.32 0.32 90 1002.5
20260509190737 57 210 1.0 4.0 0.31 0.32 0.32 92 1002.5
20260509185816 57 210 1.0 4.0 0.31 0.32 0.32 92 1002.5
20260509185735 53 235 1.0 4.0 0.31 0.32 0.32 96 1002.4
20260509185026 53 235 1.0 4.0 0.31 0.32 0.32 96 1002.4
20260509183815 53 220 2.0 11.0 0.31 0.32 0.32 93 1002.5
20260509182815 58 251 6.0 15.0 0.20 0.21 0.18 86 1002.6
20260509181816 65 283 2.0 10.0 0.00 0.01 0.01 50 1001.9
20260509180814 65 233 3.0 9.0 0.00 0.01 0.01 50 1001.3
20260509180246 67 205 3.0 15.0 0.00 0.01 0.01 49 1001.1
20260509180026 67 205 3.0 15.0 0.00 0.01 0.01 49 1001.1
20260509174814 68 212 3.0 9.0 0.00 0.01 0.01 48 1001.0
20260509173813 67 201 2.0 10.0 0.00 0.01 0.01 49 1001.2
20260509172810 67 234 3.0 8.0 0.00 0.01 0.01 49 1001.4
20260509172258 68 136 3.0 9.0 0.00 0.01 0.01 51 1001.4
20260509171810 68 136 3.0 9.0 0.00 0.01 0.01 51 1001.4
20260509170808 69 166 3.0 7.0 0.00 0.01 0.01 50 1001.5
20260509170737 68 217 3.0 10.0 0.00 0.01 0.01 54 1001.5
20260509165809 68 217 3.0 10.0 0.00 0.01 0.01 54 1001.5
20260509164801 67 185 4.0 12.0 0.00 0.01 0.01 53 1001.6
20260509164249 66 249 3.0 10.0 0.00 0.01 0.01 57 1001.6
20260509164013 66 249 3.0 10.0 0.00 0.01 0.01 57 1001.6
20260509162802 66 228 4.0 10.0 0.00 0.01 0.01 59 1001.6
20260509162247 64 160 3.0 10.0 0.00 0.01 0.01 60 1001.9
20260509162013 64 160 3.0 10.0 0.00 0.01 0.01 60 1001.9
20260509160801 61 169 2.0 9.0 0.00 0.01 0.01 70 1002.2
20260509160734 63 0 4.0 10.0 0.00 0.01 0.01 63 1002.0
20260509160013 63 0 4.0 10.0 0.00 0.01 0.01 63 1002.0
20260509154800 62 25 4.0 9.0 0.00 0.01 0.01 66 1002.0
20260509154241 61 187 5.0 10.0 0.00 0.01 0.01 67 1002.3
20260509153801 61 187 5.0 10.0 0.00 0.01 0.01 67 1002.3
20260509153738 60 244 3.0 7.0 0.00 0.01 0.01 68 1002.4
20260509153013 60 244 3.0 7.0 0.00 0.01 0.01 68 1002.4
20260509151802 59 112 4.0 10.0 0.00 0.01 0.01 71 1002.6
20260509151237 59 175 4.0 9.0 0.00 0.01 0.01 76 1002.5
20260509151012 59 175 4.0 9.0 0.00 0.01 0.01 76 1002.5
20260509150246 57 132 3.0 8.0 0.01 0.01 0.01 80 1002.6
20260509145802 57 132 3.0 8.0 0.01 0.01 0.01 80 1002.6
20260509145250 57 129 4.0 8.0 0.01 0.01 0.01 82 1002.8
20260509144802 57 129 4.0 8.0 0.01 0.01 0.01 82 1002.8
20260509144735 56 149 3.0 9.0 0.01 0.01 0.01 83 1002.7
20260509143801 56 149 3.0 9.0 0.01 0.01 0.01 83 1002.7
20260509143243 55 173 1.0 4.0 0.01 0.01 0.01 87 1003.0
20260509142801 55 173 1.0 4.0 0.01 0.01 0.01 87 1003.0
20260509142241 54 127 2.0 5.0 0.00 0.00 0.00 87 1003.5
20260509142012 54 127 2.0 5.0 0.00 0.00 0.00 87 1003.5
20260509140801 54 284 2.0 8.0 0.00 0.00 0.00 87 1003.8
20260509140242 54 164 3.0 8.0 0.00 0.00 0.00 87 1003.1
20260509135801 54 164 3.0 8.0 0.00 0.00 0.00 87 1003.1
20260509135249 54 99 3.0 7.0 0.00 0.00 0.00 87 1003.2
20260509135014 54 99 3.0 7.0 0.00 0.00 0.00 87 1003.2
20260509134258 54 161 3.0 9.0 0.00 0.00 0.00 88 1003.4
20260509133802 54 161 3.0 9.0 0.00 0.00 0.00 88 1003.4
20260509133250 54 157 2.0 8.0 0.00 0.00 0.00 87 1003.5
20260509132802 54 157 2.0 8.0 0.00 0.00 0.00 87 1003.5
20260509131801 54 142 2.0 8.0 0.00 0.00 0.00 88 1003.5
20260509130802 54 145 3.0 7.0 0.00 0.00 0.00 87 1003.7
20260509130241 55 180 3.0 8.0 0.00 0.00 0.00 85 1003.5
20260509130016 55 180 3.0 8.0 0.00 0.00 0.00 85 1003.5
20260509124759 56 218 2.0 9.0 0.00 0.00 0.00 84 1003.7
20260509123801 55 179 3.0 7.0 0.00 0.00 0.00 85 1003.7
20260509122801 54 0 2.0 7.0 0.00 0.00 0.00 87 1003.8
20260509121758 53 166 2.0 5.0 0.00 0.00 0.00 89 1003.8
20260509121241 52 146 2.0 5.0 0.00 0.00 0.00 91 1003.8
20260509121009 52 146 2.0 5.0 0.00 0.00 0.00 91 1003.8
20260509115759 51 0 1.0 4.0 0.00 0.00 0.00 94 1003.8
20260509115235 51 0 1.0 6.0 0.00 0.00 0.00 94 1003.8
20260509115011 51 0 1.0 6.0 0.00 0.00 0.00 94 1003.8
20260509113755 51 157 1.0 4.0 0.00 0.00 0.00 94 1004.0
20260509112757 50 172 1.0 4.0 0.00 0.00 0.00 95 1004.0
20260509112241 49 186 0.0 2.0 0.00 0.00 0.00 98 1004.1
20260509111757 49 186 0.0 2.0 0.00 0.00 0.00 98 1004.1
20260509110757 48 221 1.0 2.0 0.00 0.00 0.00 99 1004.2
20260509105949 47 216 0.0 2.0 0.00 0.00 0.00 98 1004.2
20260509105757 48 197 1.0 2.0 0.00 0.00 0.00 98 1004.1
20260509105259 47 216 0.0 2.0 0.00 0.00 0.00 98 1004.2
20260509104237 48 0 0.0 2.0 0.00 0.00 0.00 98 1004.1
20260509103758 48 0 0.0 2.0 0.00 0.00 0.00 98 1004.1
20260509103243 48 0 1.0 2.0 0.00 0.00 0.00 98 1004.2
20260509103009 48 0 1.0 2.0 0.00 0.00 0.00 98 1004.2
20260509102232 47 227 0.0 2.0 0.00 0.00 0.00 98 1004.3
20260509101744 47 227 0.0 2.0 0.00 0.00 0.00 98 1004.3
20260509101219 47 219 0.0 2.0 0.00 0.00 0.00 98 1004.2
20260509100954 47 219 0.0 2.0 0.00 0.00 0.00 98 1004.2
20260509100230 48 201 1.0 3.0 0.00 0.00 0.00 97 1004.4
20260509095954 48 201 1.0 3.0 0.00 0.00 0.00 97 1004.4
20260509094740 48 228 1.0 3.0 0.00 0.00 0.00 97 1004.5
20260509093741 48 248 1.0 3.0 0.00 0.00 0.00 97 1004.6
20260509093223 47 222 1.0 3.0 0.00 0.00 0.00 97 1004.5
20260509092952 47 222 1.0 3.0 0.00 0.00 0.00 97 1004.5
20260509091736 47 156 0.0 2.0 0.00 0.00 0.00 95 1004.5
20260509090737 46 207 0.0 3.0 0.00 0.00 0.00 95 1004.6
20260509085736 46 158 1.0 3.0 0.00 0.00 0.00 94 1004.6
20260509085217 46 138 2.0 3.0 0.00 0.00 0.00 94 1004.6
20260509084735 46 138 2.0 3.0 0.00 0.00 0.00 94 1004.6
20260509084212 46 0 1.0 4.0 0.00 0.00 0.00 93 1004.6
20260509083947 46 0 1.0 4.0 0.00 0.00 0.00 93 1004.6
20260509083212 46 158 1.0 2.0 0.00 0.00 0.00 92 1004.7
20260509082945 46 158 1.0 2.0 0.00 0.00 0.00 92 1004.7
20260509081733 46 0 0.0 2.0 0.00 0.00 0.00 91 1004.7
20260509081216 46 0 0.0 2.0 0.00 0.00 0.00 89 1004.8
20260509080732 46 0 0.0 2.0 0.00 0.00 0.00 89 1004.8
20260509075733 46 209 0.0 2.0 0.00 0.00 0.00 90 1004.8
20260509075219 46 0 0.0 3.0 0.00 0.00 0.00 88 1004.9
20260509074732 46 0 0.0 3.0 0.00 0.00 0.00 88 1004.9
20260509073730 45 216 0.0 3.0 0.00 0.00 0.00 88 1004.9
20260509072730 44 0 1.0 3.0 0.00 0.00 0.00 89 1005.0
20260509072214 43 0 0.0 2.0 0.00 0.00 0.00 95 1005.1
20260509071730 43 0 0.0 2.0 0.00 0.00 0.00 95 1005.1
20260509071221 41 139 0.0 2.0 0.00 0.00 0.00 98 1005.1
20260509070941 41 139 0.0 2.0 0.00 0.00 0.00 98 1005.1
20260509065730 41 0 0.0 1.0 0.00 0.00 0.00 98 1005.2
20260509065209 40 0 0.0 0.0 0.00 0.00 0.00 98 1005.3
20260509064941 40 0 0.0 0.0 0.00 0.00 0.00 98 1005.3
20260509064214 41 0 0.0 0.0 0.00 0.00 0.00 96 1005.5
20260509063730 41 0 0.0 0.0 0.00 0.00 0.00 96 1005.5
20260509062729 41 0 0.0 0.0 0.00 0.00 0.00 95 1005.5
20260509062210 41 0 0.0 0.0 0.00 0.00 0.00 97 1005.6
20260509061942 41 0 0.0 0.0 0.00 0.00 0.00 97 1005.6
20260509060735 41 0 0.0 0.0 0.00 0.00 0.00 97 1005.6
20260509060210 42 0 0.0 0.0 0.00 0.00 0.00 96 1005.7
20260509055730 42 0 0.0 0.0 0.00 0.00 0.00 96 1005.7
20260509055455 42 0 0.0 0.0 0.00 0.04 0.00 91 1006.0
20260509055313 42 0 0.0 0.0 0.00 0.00 0.00 96 1005.9
20260509054940 42 0 0.0 0.0 0.00 0.00 0.00 96 1005.9
20260509054308 42 0 0.0 0.0 0.00 0.04 0.00 91 1006.0
20260509052728 43 0 0.0 0.0 0.00 0.04 0.00 95 1006.0
20260509052215 43 0 0.0 0.0 0.00 0.04 0.00 94 1006.1
20260509051942 43 0 0.0 0.0 0.00 0.04 0.00 94 1006.1
20260509051214 43 0 0.0 1.0 0.00 0.04 0.00 98 1006.2
20260509050730 43 0 0.0 1.0 0.00 0.04 0.00 98 1006.2
20260509045730 43 0 0.0 0.0 0.00 0.04 0.00 98 1006.2
20260509044722 43 0 0.0 0.0 0.00 0.04 0.00 98 1006.3
20260509043722 43 0 0.0 0.0 0.00 0.04 0.00 97 1006.4
20260509042721 44 0 0.0 0.0 0.00 0.04 0.00 96 1006.4
20260509042200 44 0 0.0 0.0 0.00 0.04 0.00 95 1006.5
20260509041719 44 0 0.0 0.0 0.00 0.04 0.00 95 1006.5
20260509040719 45 0 0.0 0.0 0.00 0.04 0.00 95 1006.6
20260509035719 45 0 0.0 0.0 0.00 0.04 0.04 94 1006.6